TimeCST,TemperatureF,Dew PointF,Humidity,Sea Level PressureIn,VisibilityMPH,Wind Direction,Wind SpeedMPH,Gust SpeedMPH,PrecipitationIn,Events,Conditions,WindDirDegrees,DateUTC
12:15 AM,41.0,32.0,70,29.81,10.0,WNW,12.7,-,N/A,,Clear,300,2014-02-19 06:15:00
12:55 AM,39.2,32.0,75,29.82,10.0,WNW,12.7,-,N/A,,Clear,300,2014-02-19 06:55:00
1:15 AM,39.2,32.0,75,29.83,10.0,WNW,12.7,-,N/A,,Clear,290,2014-02-19 07:15:00
1:35 AM,39.2,32.0,75,29.82,10.0,WNW,10.4,-,N/A,,Clear,290,2014-02-19 07:35:00
1:55 AM,37.4,32.0,81,29.84,10.0,West,10.4,-,N/A,,Clear,280,2014-02-19 07:55:00
2:15 AM,39.2,32.0,75,29.86,10.0,West,11.5,-,N/A,,Clear,280,2014-02-19 08:15:00
2:35 AM,37.4,32.0,81,29.86,10.0,WNW,12.7,-,N/A,,Clear,290,2014-02-19 08:35:00
2:55 AM,37.4,32.0,81,29.86,10.0,WNW,12.7,-,N/A,,Clear,300,2014-02-19 08:55:00
3:15 AM,37.4,32.0,81,29.86,10.0,WNW,12.7,-,N/A,,Clear,290,2014-02-19 09:15:00
3:35 AM,37.4,32.0,81,29.86,-9999.0,WNW,11.5,-,N/A,,Clear,300,2014-02-19 09:35:00
3:55 AM,37.4,32.0,81,29.87,10.0,WNW,10.4,-,N/A,,Clear,290,2014-02-19 09:55:00
4:15 AM,37.4,32.0,81,29.87,10.0,WNW,9.2,-,N/A,,Clear,290,2014-02-19 10:15:00
4:35 AM,37.4,32.0,81,29.88,10.0,WNW,6.9,-,N/A,,Clear,290,2014-02-19 10:35:00
4:55 AM,37.4,32.0,81,29.89,10.0,WNW,9.2,-,N/A,,Clear,300,2014-02-19 10:55:00
5:15 AM,35.6,32.0,87,29.91,10.0,WNW,6.9,-,N/A,,Clear,290,2014-02-19 11:15:00
5:35 AM,35.6,30.2,81,29.91,10.0,NW,5.8,-,N/A,,Clear,310,2014-02-19 11:35:00
5:55 AM,35.6,30.2,81,29.91,10.0,WNW,8.1,-,N/A,,Clear,300,2014-02-19 11:55:00
6:15 AM,33.8,30.2,87,29.91,10.0,NNW,5.8,-,N/A,,Clear,330,2014-02-19 12:15:00
6:35 AM,32.0,28.4,87,29.91,10.0,West,5.8,-,N/A,,Clear,260,2014-02-19 12:35:00
6:55 AM,32.0,30.2,93,29.92,10.0,WSW,6.9,-,N/A,,Clear,250,2014-02-19 12:55:00
7:15 AM,30.2,28.4,93,29.94,10.0,WSW,8.1,-,N/A,,Clear,240,2014-02-19 13:15:00
7:35 AM,30.2,28.4,93,29.95,10.0,WSW,6.9,-,N/A,,Clear,250,2014-02-19 13:35:00
7:55 AM,32.0,30.2,93,29.96,10.0,SW,5.8,-,N/A,,Clear,230,2014-02-19 13:55:00
8:15 AM,33.8,30.2,87,29.96,10.0,West,5.8,-,N/A,,Clear,260,2014-02-19 14:15:00
8:35 AM,33.8,30.2,87,29.97,10.0,WSW,8.1,-,N/A,,Clear,250,2014-02-19 14:35:00
8:55 AM,35.6,32.0,87,29.97,10.0,WSW,8.1,-,N/A,,Clear,250,2014-02-19 14:55:00
9:15 AM,35.6,32.0,87,29.98,10.0,WSW,6.9,-,N/A,,Clear,250,2014-02-19 15:15:00
9:35 AM,37.4,32.0,81,29.97,10.0,West,3.5,-,N/A,,Clear,260,2014-02-19 15:35:00
9:55 AM,39.2,32.0,75,29.98,10.0,West,4.6,-,N/A,,Clear,260,2014-02-19 15:55:00
10:15 AM,39.2,32.0,75,29.98,10.0,Calm,Calm,-,N/A,,Clear,0,2014-02-19 16:15:00
10:35 AM,39.2,30.2,70,29.97,10.0,Calm,Calm,-,N/A,,Clear,0,2014-02-19 16:35:00
10:55 AM,41.0,32.0,70,29.97,10.0,Calm,Calm,-,N/A,,Clear,0,2014-02-19 16:55:00
11:15 AM,42.8,30.2,61,29.98,10.0,Calm,Calm,-,N/A,,Clear,0,2014-02-19 17:15:00
11:35 AM,42.8,30.2,61,29.99,10.0,SW,9.2,-,N/A,,Clear,220,2014-02-19 17:35:00
11:55 AM,42.8,30.2,61,29.98,10.0,SW,10.4,-,N/A,,Clear,220,2014-02-19 17:55:00
12:15 PM,42.8,30.2,61,29.98,10.0,SSW,8.1,-,N/A,,Clear,210,2014-02-19 18:15:00
12:35 PM,42.8,30.2,61,29.98,10.0,SW,10.4,-,N/A,,Clear,230,2014-02-19 18:35:00
12:55 PM,42.8,32.0,66,29.97,10.0,SSW,8.1,-,N/A,,Clear,200,2014-02-19 18:55:00
1:15 PM,42.8,30.2,61,29.96,10.0,SW,9.2,-,N/A,,Clear,220,2014-02-19 19:15:00
1:35 PM,44.6,30.2,57,29.96,10.0,SW,5.8,-,N/A,,Clear,220,2014-02-19 19:35:00
1:55 PM,44.6,30.2,57,29.95,10.0,South,6.9,-,N/A,,Clear,190,2014-02-19 19:55:00
2:15 PM,44.6,30.2,57,29.95,10.0,SSW,8.1,-,N/A,,Clear,200,2014-02-19 20:15:00
2:35 PM,44.6,30.2,57,29.94,10.0,South,6.9,-,N/A,,Clear,170,2014-02-19 20:35:00
2:55 PM,44.6,30.2,57,29.93,10.0,South,6.9,-,N/A,,Clear,190,2014-02-19 20:55:00
3:15 PM,44.6,30.2,57,29.93,10.0,South,5.8,-,N/A,,Clear,170,2014-02-19 21:15:00
3:35 PM,44.6,28.4,53,29.93,10.0,Variable,4.6,-,N/A,,Clear,0,2014-02-19 21:35:00
3:55 PM,42.8,32.0,66,29.91,10.0,ESE,8.1,-,N/A,,Clear,110,2014-02-19 21:55:00
4:15 PM,42.8,30.2,61,29.91,10.0,SE,6.9,-,N/A,,Clear,140,2014-02-19 22:15:00
4:35 PM,44.6,30.2,57,29.91,10.0,SE,6.9,-,N/A,,Clear,130,2014-02-19 22:35:00
4:55 PM,42.8,30.2,61,29.89,10.0,ESE,6.9,-,N/A,,Clear,120,2014-02-19 22:55:00
5:15 PM,39.2,32.0,75,29.90,10.0,ESE,5.8,-,N/A,,Clear,120,2014-02-19 23:15:00
6:15 PM,41.0,30.2,65,29.89,10.0,Calm,Calm,-,N/A,,Partly Cloudy,0,2014-02-20 00:15:00
6:55 PM,39.2,32.0,75,29.87,10.0,ESE,9.2,-,N/A,,Clear,110,2014-02-20 00:55:00
7:15 PM,39.2,30.2,70,29.87,10.0,ESE,8.1,-,N/A,,Clear,110,2014-02-20 01:15:00
7:35 PM,39.2,32.0,75,29.85,10.0,SE,6.9,-,N/A,,Clear,130,2014-02-20 01:35:00
7:55 PM,41.0,30.2,65,29.86,10.0,SE,9.2,15.0,N/A,,Clear,140,2014-02-20 01:55:00
8:55 PM,41.0,32.0,70,29.86,10.0,SSE,8.1,-,N/A,,Overcast,150,2014-02-20 02:55:00
9:55 PM,39.2,33.8,81,29.80,6.0,ESE,11.5,20.7,0.01,Rain,Light Rain,110,2014-02-20 03:55:00
10:20 PM,39.2,35.6,87,29.77,7.0,ESE,12.7,-,N/A,Rain,Light Rain,120,2014-02-20 04:20:00
10:50 PM,39.2,35.6,87,29.74,7.0,ESE,15.0,21.9,N/A,Rain,Light Rain,120,2014-02-20 04:50:00
11:15 PM,39.2,35.6,87,29.75,10.0,Calm,Calm,12.7,N/A,,Overcast,0,2014-02-20 05:15:00
11:35 PM,41.0,35.6,81,29.76,5.0,Calm,Calm,-,N/A,Rain,Light Rain,0,2014-02-20 05:35:00
11:55 PM,39.2,37.4,93,29.73,3.0,ESE,10.4,-,0.10,,Overcast,110,2014-02-20 05:55:00